Location: Casteau
(50.5142°N, 4.0161°E)
Time: 18:54:18
(UTC+00:00)

Tiros 1 - Pass Details

Date: 06 August 2021
Orbit: 630 x 663 km, 48.4° (Epoch: 28 September)

Event Time Altitude Azimuth Distance (km) Brightness Sun altitude
Rises 15:07:11 0° 203° (SSW) 2,983 11.1 38.1°
Reaches altitude 10° 15:10:08 10° 185° (S) 2,072 10.2 37.6°
Maximum altitude 15:13:23 18° 142° (SE) 1,590 9.2 37.2°
Drops below altitude 10° 15:16:38 10° 99° (E) 2,072 9.4 36.7°
Sets 15:19:35 0° 81° (E) 2,982 10.1 36.2°
